QPF
0.00 0.00 0.00 0.00 0.00 0.00 0.00 0.00 0.00 0.00 0.00 0.00 0.00 0.00 0.00 0.00 0.00 0.00 0.00 0.00 0.00 0.00 0.01 0.01 0.01 0.01 0.01 0.02 0.02 0.02 0.01 0.02 0.03 0.03 0.05 0.05 0.04 0.05 0.05 0.05 0.03 0.02 0.01 0.00
0.00 0.00 0.00 0.00 0.00 0.00 0.00 0.00 0.00 0.00 0.00 0.00 0.00 0.00 0.00 0.00 0.00 0.00 0.00 0.00 0.00 0.00 0.00 0.00 0.01 0.01 0.01 0.01 0.01 0.01 0.01 0.02 0.04 0.04 0.03 0.02 0.05 0.08 0.07 0.05 0.02 0.02 0.01 0.00
0.00 0.00 0.00 0.00 0.00 0.00 0.00 0.00 0.00 0.00 0.00 0.00 0.00 0.00 0.00 0.00 0.00 0.00 0.00 0.00 0.00 0.00 0.00 0.00 0.00 0.01 0.01 0.01 0.01 0.01 0.01 0.01 0.01 0.02 0.03 0.04 0.07 0.06 0.05 0.03 0.01 0.01 0.01 0.01
0.00 0.00 0.00 0.00 0.00 0.00 0.00 0.00 0.00 0.00 0.00 0.00 0.00 0.00 0.00 0.00 0.00 0.00 0.00 0.00 0.00 0.00 0.00 0.00 0.00 0.01 0.01 0.01 0.01 0.01 0.00 0.00 0.00 0.01 0.02 0.03 0.03 0.03 0.02 0.01 0.02 0.01 0.01 0.01
0.00 0.00 0.00 0.00 0.00 0.00 0.00 0.00 0.00 0.00 0.00 0.00 0.00 0.00 0.00 0.00 0.00 0.00 0.00 0.00 0.00 0.00 0.00 0.00 0.00 0.00 0.00 0.00 0.01 0.01 0.01 0.00 0.00 0.00 0.01 0.02 0.02 0.01 0.01 0.01 0.01 0.01 0.01 0.02
0.00 0.00 0.00 0.00 0.00 0.00 0.00 0.00 0.00 0.00 0.00 0.00 0.00 0.00 0.00 0.00 0.00 0.00 0.00 0.00 0.00 0.00 0.00 0.00 0.00 0.00 0.00 0.00 0.00 0.01 0.01 0.01 0.00 0.00 0.01 0.01 0.01 0.02 0.02 0.01 0.02 0.02 0.01 0.01
0.00 0.00 0.00 0.00 0.00 0.00 0.00 0.00 0.00 0.00 0.00 0.00 0.00 0.00 0.00 0.00 0.00 0.00 0.00 0.00 0.00 0.00 0.00 0.00 0.00 0.00 0.00 0.00 0.00 0.00 0.01 0.01 0.00 0.01 0.01 0.02 0.02 0.03 0.02 0.02 0.02 0.02 0.01 0.01
0.00 0.00 0.00 0.00 0.00 0.00 0.00 0.00 0.00 0.00 0.00 0.00 0.00 0.00 0.00 0.00 0.00 0.00 0.00 0.00 0.00 0.00 0.00 0.00 0.00 0.00 0.00 0.00 0.00 0.00 0.00 0.00 0.00 0.01 0.01 0.02 0.03 0.03 0.02 0.01 0.01 0.01 0.01 0.01
0.01 0.01 0.00 0.00 0.00 0.00 0.00 0.00 0.00 0.00 0.00 0.00 0.00 0.00 0.00 0.00 0.00 0.00 0.00 0.00 0.00 0.00 0.00 0.00 0.00 0.00 0.00 0.00 0.01 0.01 0.00 0.01 0.01 0.01 0.01 0.02 0.03 0.02 0.02 0.01 0.01 0.01 0.01 0.01
0.01 0.01 0.00 0.00 0.00 0.00 0.00 0.00 0.00 0.00 0.00 0.00 0.00 0.00 0.00 0.00 0.00 0.00 0.00 0.00 0.00 0.00 0.00 0.00 0.00 0.00 0.00 0.01 0.01 0.01 0.01 0.01 0.01 0.01 0.02 0.04 0.03 0.02 0.02 0.02 0.01 0.01 0.01 0.00
0.01 0.01 0.01 0.00 0.00 0.00 0.00 0.00 0.00 0.00 0.00 0.00 0.00 0.00 0.00 0.00 0.01 0.01 0.00 0.00 0.00 0.00 0.00 0.00 0.00 0.00 0.00 0.01 0.01 0.01 0.01 0.01 0.01 0.01 0.01 0.02 0.02 0.02 0.03 0.02 0.02 0.01 0.01 0.01
0.02 0.01 0.01 0.00 0.00 0.00 0.00 0.00 0.00 0.00 0.00 0.00 0.00 0.00 0.00 0.00 0.00 0.00 0.00 0.00 0.00 0.00 0.00 0.00 0.00 0.00 0.00 0.01 0.01 0.01 0.01 0.00 0.00 0.00 0.01 0.01 0.01 0.01 0.02 0.02 0.02 0.02 0.01 0.01
0.01 0.00 0.00 0.00 0.00 0.00 0.00 0.00 0.00 0.00 0.00 0.00 0.00 0.00 0.00 0.00 0.00 0.00 0.00 0.00 0.00 0.00 0.00 0.00 0.00 0.00 0.00 0.01 0.01 0.01 0.00 0.00 0.00 0.00 0.01 0.01 0.01 0.01 0.02 0.02 0.02 0.02 0.01 0.01
0.00 0.01 0.01 0.00 0.00 0.00 0.00 0.00 0.00 0.00 0.00 0.00 0.00 0.00 0.00 0.00 0.00 0.00 0.00 0.00 0.00 0.00 0.00 0.00 0.00 0.00 0.00 0.01 0.01 0.01 0.00 0.00 0.00 0.00 0.01 0.01 0.01 0.01 0.02 0.02 0.02 0.02 0.02 0.01
0.00 0.00 0.01 0.01 0.01 0.00 0.00 0.00 0.00 0.00 0.00 0.00 0.00 0.00 0.00 0.00 0.00 0.00 0.00 0.00 0.00 0.00 0.00 0.00 0.00 0.00 0.01 0.01 0.01 0.01 0.01 0.01 0.00 0.00 0.00 0.00 0.01 0.02 0.02 0.02 0.02 0.02 0.02 0.02
0.00 0.00 0.00 0.00 0.00 0.00 0.00 0.00 0.00 0.00 0.00 0.00 0.00 0.00 0.00 0.00 0.00 0.00 0.00 0.00 0.00 0.00 0.00 0.00 0.00 0.01 0.01 0.01 0.02 0.01 0.01 0.01 0.01 0.01 0.01 0.01 0.01 0.01 0.01 0.01 0.02 0.02 0.02 0.02
0.01 0.01 0.01 0.01 0.01 0.01 0.00 0.00 0.01 0.00 0.00 0.00 0.00 0.00 0.00 0.00 0.00 0.00 0.00 0.00 0.00 0.00 0.00 0.00 0.00 0.01 0.01 0.01 0.01 0.01 0.01 0.01 0.02 0.02 0.02 0.01 0.01 0.01 0.01 0.01 0.01 0.01 0.01 0.01
0.01 0.01 0.02 0.02 0.01 0.01 0.01 0.00 0.00 0.00 0.00 0.00 0.00 0.00 0.00 0.00 0.00 0.00 0.00 0.00 0.00 0.00 0.01 0.01 0.01 0.01 0.01 0.00 0.00 0.01 0.02 0.02 0.01 0.01 0.02 0.02 0.01 0.01 0.01 0.01 0.01 0.01 0.01 0.01
0.01 0.01 0.01 0.01 0.02 0.02 0.01 0.01 0.01 0.01 0.00 0.00 0.00 0.00 0.00 0.00 0.00 0.00 0.00 0.00 0.00 0.00 0.00 0.00 0.01 0.01 0.00 0.00 0.00 0.00 0.01 0.01 0.01 0.01 0.01 0.01 0.01 0.01 0.01 0.01 0.01 0.01 0.01 0.01
0.01 0.01 0.01 0.01 0.01 0.02 0.02 0.02 0.01 0.01 0.00 0.00 0.00 0.00 0.00 0.00 0.00 0.00 0.00 0.00 0.00 0.00 0.01 0.01 0.01 0.00 0.00 0.00 0.00 0.00 0.00 0.00 0.01 0.01 0.01 0.01 0.01 0.01 0.01 0.01 0.01 0.01 0.01 0.01
0.01 0.01 0.01 0.01 0.01 0.01 0.02 0.02 0.01 0.01 0.00 0.00 0.00 0.00 0.00 0.00 0.00 0.00 0.00 0.00 0.00 0.01 0.01 0.01 0.01 0.01 0.00 0.00 0.00 0.00 0.00 0.00 0.00 0.01 0.01 0.01 0.01 0.01 0.01 0.01 0.01 0.01 0.01 0.01
0.01 0.01 0.01 0.01 0.01 0.01 0.01 0.01 0.01 0.01 0.00 0.00 0.00 0.00 0.00 0.00 0.00 0.00 0.01 0.01 0.01 0.01 0.01 0.01 0.01 0.01 0.01 0.00 0.00 0.00 0.00 0.00 0.00 0.01 0.01 0.01 0.01 0.01 0.01 0.02 0.02 0.02 0.02 0.02
0.01 0.01 0.01 0.01 0.01 0.00 0.00 0.00 0.00 0.00 0.00 0.00 0.00 0.00 0.00 0.01 0.01 0.01 0.01 0.02 0.02 0.02 0.02 0.02 0.02 0.02 0.02 0.01 0.00 0.01 0.01 0.01 0.01 0.01 0.01 0.01 0.01 0.01 0.01 0.01 0.02 0.02 0.02 0.02
0.00 0.01 0.01 0.01 0.01 0.00 0.00 0.01 0.01 0.01 0.01 0.00 0.01 0.01 0.01 0.02 0.03 0.04 0.03 0.03 0.03 0.03 0.03 0.02 0.02 0.02 0.02 0.01 0.01 0.01 0.01 0.01 0.01 0.01 0.01 0.01 0.01 0.01 0.01 0.01 0.01 0.02 0.02 0.02
0.00 0.01 0.02 0.01 0.02 0.02 0.01 0.01 0.01 0.01 0.01 0.01 0.01 0.01 0.02 0.02 0.03 0.03 0.03 0.04 0.04 0.04 0.03 0.04 0.03 0.03 0.02 0.01 0.01 0.01 0.01 0.01 0.01 0.01 0.01 0.01 0.01 0.01 0.01 0.01 0.01 0.02 0.03 0.03
0.01 0.01 0.01 0.01 0.01 0.02 0.02 0.02 0.01 0.01 0.01 0.01 0.01 0.01 0.01 0.01 0.01 0.01 0.02 0.02 0.03 0.03 0.03 0.03 0.03 0.03 0.02 0.02 0.01 0.01 0.01 0.01 0.01 0.01 0.01 0.01 0.01 0.01 0.01 0.02 0.01 0.01 0.01 0.02
0.01 0.00 0.00 0.01 0.01 0.01 0.00 0.01 0.01 0.00 0.01 0.01 0.01 0.01 0.01 0.01 0.02 0.01 0.01 0.01 0.02 0.02 0.02 0.02 0.01 0.02 0.02 0.01 0.01 0.01 0.01 0.01 0.01 0.01 0.01 0.01 0.00 0.01 0.01 0.01 0.01 0.01 0.01 0.01
MSLP
1021.21 1021.72 1022.22 1022.68 1023.07 1023.38 1023.56 1023.60 1023.50 1023.25 1022.88 1022.42 1021.92 1021.41 1020.94 1020.53 1020.19 1019.93 1019.74 1019.60 1019.50 1019.43 1019.38 1019.34 1019.33 1019.35 1019.40 1019.49 1019.61 1019.76 1019.92 1020.08 1020.23 1020.37 1020.51 1020.63 1020.77 1020.91 1021.07 1021.25 1021.45 1021.66 1021.87 1022.07
1021.47 1021.87 1022.19 1022.44 1022.60 1022.69 1022.71 1022.66 1022.54 1022.36 1022.15 1021.91 1021.66 1021.42 1021.18 1020.94 1020.71 1020.49 1020.26 1020.02 1019.78 1019.56 1019.36 1019.20 1019.09 1019.05 1019.07 1019.16 1019.30 1019.48 1019.67 1019.86 1020.05 1020.22 1020.37 1020.52 1020.68 1020.85 1021.04 1021.25 1021.48 1021.72 1021.96 1022.20
1021.80 1022.04 1022.17 1022.20 1022.15 1022.05 1021.93 1021.80 1021.68 1021.60 1021.54 1021.52 1021.52 1021.52 1021.49 1021.43 1021.32 1021.13 1020.88 1020.57 1020.23 1019.87 1019.54 1019.26 1019.05 1018.93 1018.90 1018.95 1019.08 1019.24 1019.43 1019.63 1019.81 1019.99 1020.15 1020.32 1020.50 1020.70 1020.92 1021.16 1021.43 1021.70 1021.98 1022.24
1022.15 1022.22 1022.15 1021.98 1021.74 1021.48 1021.24 1021.07 1020.98 1020.99 1021.08 1021.26 1021.47 1021.68 1021.86 1021.95 1021.94 1021.81 1021.57 1021.22 1020.80 1020.35 1019.92 1019.54 1019.24 1019.04 1018.93 1018.93 1018.99 1019.11 1019.25 1019.41 1019.56 1019.71 1019.87 1020.04 1020.23 1020.45 1020.70 1020.98 1021.28 1021.59 1021.90 1022.20
1022.43 1022.32 1022.07 1021.73 1021.34 1020.97 1020.67 1020.49 1020.44 1020.53 1020.77 1021.10 1021.49 1021.88 1022.21 1022.44 1022.53 1022.46 1022.24 1021.89 1021.45 1020.96 1020.47 1020.02 1019.65 1019.37 1019.18 1019.09 1019.07 1019.10 1019.16 1019.24 1019.33 1019.43 1019.55 1019.71 1019.90 1020.14 1020.42 1020.73 1021.06 1021.41 1021.75 1022.07
1022.55 1022.29 1021.90 1021.43 1020.95 1020.53 1020.21 1020.04 1020.05 1020.23 1020.57 1021.03 1021.55 1022.06 1022.51 1022.84 1023.01 1023.01 1022.84 1022.52 1022.09 1021.60 1021.10 1020.63 1020.21 1019.87 1019.61 1019.42 1019.29 1019.21 1019.16 1019.14 1019.13 1019.16 1019.23 1019.35 1019.53 1019.77 1020.06 1020.40 1020.77 1021.14 1021.51 1021.86
1022.45 1022.07 1021.59 1021.07 1020.55 1020.13 1019.84 1019.72 1019.80 1020.06 1020.49 1021.03 1021.63 1022.22 1022.73 1023.13 1023.36 1023.42 1023.30 1023.04 1022.66 1022.22 1021.74 1021.28 1020.85 1020.47 1020.15 1019.87 1019.63 1019.43 1019.26 1019.11 1018.99 1018.93 1018.92 1018.99 1019.14 1019.36 1019.66 1020.01 1020.39 1020.79 1021.18 1021.56
1022.08 1021.65 1021.14 1020.62 1020.15 1019.78 1019.57 1019.53 1019.69 1020.02 1020.51 1021.10 1021.73 1022.34 1022.88 1023.30 1023.57 1023.68 1023.62 1023.43 1023.12 1022.75 1022.33 1021.91 1021.49 1021.10 1020.73 1020.38 1020.04 1019.72 1019.42 1019.14 1018.91 1018.74 1018.64 1018.64 1018.74 1018.93 1019.21 1019.56 1019.95 1020.36 1020.77 1021.16
1021.47 1021.04 1020.58 1020.13 1019.75 1019.50 1019.40 1019.47 1019.71 1020.11 1020.63 1021.24 1021.87 1022.47 1022.99 1023.41 1023.68 1023.82 1023.81 1023.69 1023.46 1023.17 1022.83 1022.47 1022.08 1021.70 1021.30 1020.89 1020.47 1020.05 1019.63 1019.23 1018.88 1018.59 1018.40 1018.32 1018.35 1018.50 1018.74 1019.06 1019.43 1019.83 1020.25 1020.65
1020.69 1020.32 1019.95 1019.63 1019.40 1019.30 1019.34 1019.53 1019.87 1020.32 1020.87 1021.47 1022.07 1022.62 1023.11 1023.49 1023.75 1023.89 1023.92 1023.86 1023.70 1023.49 1023.23 1022.93 1022.59 1022.22 1021.81 1021.37 1020.88 1020.38 1019.86 1019.36 1018.90 1018.51 1018.22 1018.05 1017.99 1018.07 1018.25 1018.52 1018.86 1019.24 1019.64 1020.05
1019.83 1019.57 1019.34 1019.19 1019.14 1019.20 1019.40 1019.72 1020.15 1020.66 1021.21 1021.79 1022.34 1022.84 1023.26 1023.59 1023.83 1023.96 1024.01 1023.98 1023.89 1023.74 1023.55 1023.30 1023.01 1022.66 1022.26 1021.79 1021.26 1020.70 1020.11 1019.52 1018.97 1018.49 1018.10 1017.83 1017.69 1017.67 1017.77 1017.97 1018.25 1018.59 1018.97 1019.38
1019.01 1018.89 1018.82 1018.85 1018.98 1019.22 1019.57 1020.01 1020.52 1021.07 1021.63 1022.18 1022.68 1023.12 1023.48 1023.76 1023.95 1024.07 1024.12 1024.12 1024.06 1023.95 1023.80 1023.60 1023.34 1023.02 1022.62 1022.14 1021.59 1020.99 1020.35 1019.71 1019.10 1018.54 1018.06 1017.70 1017.46 1017.34 1017.34 1017.46 1017.66 1017.94 1018.28 1018.67
1018.30 1018.33 1018.43 1018.63 1018.94 1019.34 1019.82 1020.37 1020.94 1021.52 1022.09 1022.61 1023.06 1023.44 1023.75 1023.98 1024.14 1024.23 1024.27 1024.27 1024.23 1024.15 1024.02 1023.84 1023.60 1023.28 1022.89 1022.42 1021.87 1021.25 1020.60 1019.93 1019.27 1018.65 1018.11 1017.66 1017.33 1017.11 1017.01 1017.02 1017.13 1017.34 1017.62 1017.97
1017.76 1017.92 1018.18 1018.54 1018.99 1019.53 1020.12 1020.74 1021.36 1021.96 1022.52 1023.01 1023.43 1023.77 1024.03 1024.22 1024.35 1024.42 1024.45 1024.44 1024.39 1024.31 1024.19 1024.01 1023.78 1023.47 1023.08 1022.62 1022.08 1021.48 1020.83 1020.15 1019.48 1018.83 1018.24 1017.72 1017.30 1016.98 1016.78 1016.68 1016.70 1016.81 1017.03 1017.34
1017.37 1017.66 1018.06 1018.55 1019.13 1019.76 1020.42 1021.09 1021.74 1022.34 1022.88 1023.35 1023.74 1024.04 1024.28 1024.44 1024.55 1024.60 1024.62 1024.59 1024.53 1024.44 1024.30 1024.11 1023.87 1023.56 1023.19 1022.74 1022.22 1021.65 1021.03 1020.37 1019.71 1019.05 1018.43 1017.86 1017.37 1016.96 1016.66 1016.46 1016.37 1016.39 1016.53 1016.78
1017.11 1017.52 1018.04 1018.64 1019.30 1020.00 1020.70 1021.39 1022.04 1022.63 1023.15 1023.59 1023.95 1024.23 1024.45 1024.60 1024.69 1024.74 1024.74 1024.70 1024.62 1024.50 1024.34 1024.13 1023.87 1023.56 1023.19 1022.77 1022.28 1021.75 1021.17 1020.56 1019.92 1019.28 1018.65 1018.06 1017.51 1017.02 1016.62 1016.33 1016.14 1016.07 1016.12 1016.30
1016.95 1017.47 1018.09 1018.77 1019.50 1020.23 1020.95 1021.63 1022.26 1022.82 1023.31 1023.72 1024.06 1024.33 1024.53 1024.67 1024.76 1024.80 1024.79 1024.73 1024.63 1024.48 1024.29 1024.06 1023.78 1023.47 1023.11 1022.70 1022.26 1021.77 1021.24 1020.68 1020.09 1019.48 1018.86 1018.25 1017.66 1017.12 1016.64 1016.26 1015.97 1015.81 1015.78 1015.89
1016.86 1017.49 1018.20 1018.95 1019.71 1020.46 1021.17 1021.83 1022.42 1022.94 1023.39 1023.77 1024.08 1024.33 1024.53 1024.67 1024.76 1024.79 1024.77 1024.70 1024.57 1024.40 1024.18 1023.91 1023.62 1023.29 1022.93 1022.55 1022.14 1021.70 1021.23 1020.73 1020.18 1019.61 1019.01 1018.40 1017.79 1017.20 1016.66 1016.20 1015.83 1015.58 1015.47 1015.50
1016.85 1017.58 1018.36 1019.16 1019.94 1020.69 1021.38 1021.99 1022.54 1023.01 1023.42 1023.76 1024.04 1024.28 1024.47 1024.61 1024.69 1024.72 1024.69 1024.60 1024.45 1024.25 1023.99 1023.70 1023.38 1023.04 1022.69 1022.32 1021.94 1021.54 1021.12 1020.66 1020.17 1019.63 1019.06 1018.45 1017.83 1017.21 1016.62 1016.10 1015.66 1015.34 1015.15 1015.11
1016.93 1017.74 1018.58 1019.42 1020.21 1020.94 1021.59 1022.16 1022.65 1023.07 1023.42 1023.73 1023.98 1024.20 1024.37 1024.51 1024.58 1024.61 1024.57 1024.46 1024.28 1024.05 1023.77 1023.45 1023.10 1022.75 1022.39 1022.02 1021.66 1021.29 1020.90 1020.49 1020.03 1019.53 1018.98 1018.38 1017.75 1017.12 1016.50 1015.93 1015.43 1015.05 1014.80 1014.69
1017.12 1018.00 1018.88 1019.73 1020.51 1021.20 1021.81 1022.33 1022.76 1023.12 1023.42 1023.69 1023.91 1024.10 1024.26 1024.38 1024.45 1024.46 1024.41 1024.28 1024.08 1023.82 1023.51 1023.15 1022.78 1022.40 1022.03 1021.66 1021.30 1020.95 1020.58 1020.19 1019.77 1019.29 1018.76 1018.17 1017.55 1016.90 1016.26 1015.66 1015.13 1014.70 1014.39 1014.23
1017.45 1018.36 1019.25 1020.08 1020.83 1021.48 1022.03 1022.48 1022.85 1023.16 1023.41 1023.63 1023.82 1023.99 1024.13 1024.23 1024.29 1024.29 1024.21 1024.06 1023.84 1023.54 1023.20 1022.82 1022.41 1022.01 1021.61 1021.23 1020.87 1020.51 1020.15 1019.78 1019.37 1018.91 1018.39 1017.82 1017.21 1016.56 1015.92 1015.30 1014.75 1014.28 1013.94 1013.74
1017.90 1018.80 1019.66 1020.45 1021.14 1021.73 1022.21 1022.60 1022.91 1023.15 1023.36 1023.54 1023.70 1023.84 1023.95 1024.04 1024.07 1024.05 1023.95 1023.78 1023.52 1023.20 1022.82 1022.41 1021.97 1021.54 1021.11 1020.71 1020.34 1019.97 1019.62 1019.24 1018.84 1018.40 1017.90 1017.34 1016.74 1016.11 1015.47 1014.86 1014.30 1013.82 1013.46 1013.23
1018.42 1019.27 1020.07 1020.79 1021.41 1021.91 1022.32 1022.63 1022.88 1023.07 1023.23 1023.37 1023.50 1023.61 1023.70 1023.76 1023.77 1023.73 1023.60 1023.40 1023.12 1022.76 1022.35 1021.91 1021.44 1020.97 1020.52 1020.10 1019.70 1019.33 1018.96 1018.59 1018.19 1017.75 1017.27 1016.74 1016.16 1015.55 1014.93 1014.33 1013.78 1013.30 1012.93 1012.69
1018.95 1019.72 1020.43 1021.05 1021.57 1021.98 1022.31 1022.55 1022.74 1022.88 1023.00 1023.11 1023.20 1023.29 1023.36 1023.39 1023.38 1023.30 1023.15 1022.92 1022.60 1022.22 1021.78 1021.30 1020.80 1020.31 1019.83 1019.38 1018.96 1018.57 1018.19 1017.81 1017.42 1016.99 1016.53 1016.02 1015.46 1014.88 1014.30 1013.72 1013.19 1012.73 1012.36 1012.11
1019.39 1020.06 1020.65 1021.16 1021.58 1021.91 1022.15 1022.33 1022.47 1022.57 1022.66 1022.74 1022.81 1022.88 1022.92 1022.93 1022.89 1022.78 1022.60 1022.34 1021.99 1021.58 1021.10 1020.60 1020.07 1019.55 1019.05 1018.57 1018.13 1017.71 1017.32 1016.93 1016.53 1016.11 1015.66 1015.17 1014.65 1014.10 1013.54 1013.00 1012.50 1012.06 1011.71 1011.46
1019.67 1020.22 1020.70 1021.10 1021.42 1021.67 1021.85 1021.98 1022.08 1022.15 1022.22 1022.29 1022.34 1022.39 1022.41 1022.40 1022.33 1022.19 1021.98 1021.68 1021.31 1020.86 1020.36 1019.83 1019.28 1018.73 1018.20 1017.69 1017.22 1016.78 1016.37 1015.96 1015.55 1015.13 1014.68 1014.20 1013.70 1013.18 1012.66 1012.15 1011.67 1011.26 1010.93 1010.70
Thickness
5682 5687 5686 5686 5686 5681 5675 5671 5664 5673 5678 5692 5699 5700 5701 5702 5700 5698 5696 5694 5692 5689 5687 5685 5683 5682 5680 5679 5678 5676 5674 5672 5671 5670 5669 5668 5667 5666 5665 5665 5664 5663 5662 5661
5676 5682 5682 5681 5684 5681 5679 5678 5675 5677 5682 5699 5701 5700 5698 5697 5696 5694 5693 5692 5690 5688 5685 5683 5681 5680 5679 5677 5675 5674 5671 5670 5670 5668 5667 5665 5664 5663 5662 5661 5661 5660 5658 5658
5659 5669 5673 5668 5682 5682 5683 5684 5682 5678 5688 5696 5695 5695 5695 5695 5693 5692 5690 5690 5688 5686 5684 5682 5680 5678 5675 5675 5673 5671 5669 5668 5667 5666 5664 5663 5662 5660 5659 5658 5657 5656 5654 5653
5649 5657 5651 5676 5692 5691 5688 5689 5690 5691 5693 5694 5694 5695 5695 5695 5693 5691 5689 5687 5686 5684 5682 5680 5678 5676 5674 5671 5669 5668 5666 5666 5665 5663 5661 5660 5658 5657 5656 5655 5654 5652 5651 5650
5638 5641 5651 5673 5687 5688 5683 5684 5693 5691 5692 5692 5691 5690 5689 5693 5692 5691 5690 5688 5685 5683 5681 5678 5675 5673 5670 5668 5666 5664 5663 5663 5662 5660 5659 5657 5655 5654 5653 5652 5650 5649 5648 5646
5634 5639 5643 5669 5688 5693 5687 5677 5693 5691 5689 5687 5684 5674 5681 5691 5690 5688 5687 5685 5683 5681 5677 5674 5672 5669 5666 5663 5662 5661 5661 5660 5660 5658 5656 5655 5654 5652 5650 5648 5647 5645 5644 5642
5632 5634 5647 5673 5684 5686 5666 5672 5690 5688 5687 5683 5680 5682 5687 5688 5687 5685 5683 5681 5679 5676 5673 5671 5668 5665 5661 5660 5659 5659 5659 5658 5657 5656 5654 5653 5651 5648 5646 5643 5641 5640 5638 5637
5626 5629 5644 5676 5675 5670 5672 5683 5685 5684 5684 5681 5681 5683 5682 5682 5681 5679 5677 5675 5673 5670 5668 5667 5664 5661 5657 5656 5657 5656 5655 5654 5653 5652 5651 5649 5646 5643 5640 5638 5635 5633 5632 5631
5640 5649 5664 5670 5672 5677 5677 5677 5680 5680 5680 5679 5677 5676 5676 5676 5674 5673 5671 5668 5667 5664 5662 5661 5659 5656 5653 5654 5653 5651 5650 5649 5648 5647 5645 5643 5641 5638 5635 5632 5629 5627 5626 5624
5637 5651 5660 5664 5668 5671 5673 5674 5676 5676 5676 5674 5672 5671 5670 5669 5667 5665 5664 5662 5659 5657 5655 5654 5653 5652 5651 5650 5649 5647 5645 5644 5643 5641 5639 5637 5635 5633 5630 5627 5625 5623 5621 5619
5633 5645 5653 5661 5662 5665 5667 5669 5670 5670 5670 5669 5668 5666 5665 5663 5661 5659 5657 5655 5653 5651 5650 5649 5648 5647 5647 5646 5644 5641 5640 5639 5637 5635 5633 5631 5629 5627 5626 5625 5623 5620 5618 5616
5632 5643 5643 5651 5659 5661 5660 5662 5663 5663 5663 5663 5662 5660 5659 5656 5655 5654 5651 5649 5647 5646 5645 5644 5643 5642 5642 5641 5639 5636 5634 5633 5631 5629 5627 5624 5622 5620 5620 5619 5618 5617 5615 5612
5637 5642 5642 5648 5651 5653 5653 5655 5655 5656 5656 5655 5656 5654 5653 5651 5649 5647 5646 5644 5642 5641 5640 5639 5637 5637 5637 5636 5634 5631 5629 5627 5625 5622 5620 5618 5616 5614 5612 5611 5610 5609 5608 5606
5631 5632 5634 5639 5641 5644 5645 5646 5647 5647 5648 5649 5647 5646 5645 5643 5641 5640 5639 5639 5637 5635 5634 5633 5631 5631 5630 5629 5627 5625 5623 5622 5619 5616 5614 5612 5609 5607 5605 5603 5601 5600 5600 5599
5624 5625 5628 5631 5633 5635 5636 5636 5636 5637 5638 5639 5638 5637 5637 5635 5634 5633 5633 5632 5630 5629 5628 5626 5625 5624 5623 5622 5619 5617 5615 5614 5612 5609 5607 5605 5603 5600 5598 5596 5594 5592 5591 5590
5617 5618 5620 5621 5623 5625 5626 5626 5626 5627 5628 5629 5629 5629 5629 5629 5628 5626 5625 5624 5622 5621 5621 5620 5619 5618 5617 5614 5612 5610 5608 5607 5605 5601 5598 5596 5593 5591 5590 5588 5586 5584 5583 5581
5606 5608 5610 5611 5614 5615 5617 5618 5619 5620 5621 5621 5621 5622 5621 5620 5618 5618 5618 5617 5616 5615 5614 5612 5612 5611 5610 5608 5605 5602 5600 5598 5597 5593 5590 5588 5585 5583 5582 5580 5577 5576 5575 5574
5604 5605 5606 5607 5608 5608 5609 5611 5611 5612 5613 5614 5614 5613 5612 5612 5610 5610 5610 5608 5607 5606 5606 5605 5605 5604 5602 5600 5598 5595 5592 5589 5587 5585 5583 5580 5578 5576 5574 5572 5570 5568 5567 5565
5597 5598 5599 5600 5601 5602 5603 5604 5604 5605 5605 5606 5605 5604 5604 5604 5604 5603 5601 5599 5598 5597 5599 5598 5598 5596 5594 5592 5590 5587 5584 5581 5578 5576 5574 5573 5570 5568 5565 5563 5562 5561 5559 5557
5590 5591 5592 5592 5594 5594 5595 5596 5596 5596 5596 5596 5596 5596 5595 5595 5595 5594 5592 5591 5591 5591 5591 5590 5589 5587 5585 5583 5581 5577 5575 5572 5570 5567 5565 5563 5561 5559 5557 5556 5554 5553 5551 5550
5581 5583 5584 5584 5585 5586 5587 5587 5586 5586 5587 5587 5586 5586 5586 5587 5586 5585 5583 5582 5583 5583 5582 5581 5579 5577 5576 5574 5571 5568 5565 5563 5561 5558 5556 5554 5552 5550 5549 5547 5546 5544 5543 5542
5571 5572 5574 5575 5575 5576 5577 5577 5577 5577 5577 5576 5576 5576 5576 5576 5576 5575 5575 5575 5575 5574 5572 5570 5569 5568 5566 5564 5561 5558 5556 5554 5551 5549 5547 5545 5543 5541 5540 5539 5537 5536 5535 5534
5560 5561 5563 5564 5565 5565 5566 5566 5567 5567 5567 5567 5567 5566 5566 5566 5566 5564 5564 5565 5564 5564 5562 5560 5560 5559 5557 5553 5551 5548 5546 5543 5541 5539 5538 5536 5534 5532 5531 5530 5529 5528 5526 5525
5549 5550 5552 5553 5554 5555 5555 5556 5556 5557 5557 5557 5557 5557 5557 5556 5555 5555 5554 5555 5554 5553 5550 5550 5549 5548 5545 5542 5540 5537 5535 5533 5531 5529 5528 5526 5525 5523 5522 5520 5519 5518 5517 5516
5540 5540 5541 5542 5543 5545 5545 5546 5546 5546 5546 5546 5547 5547 5547 5546 5545 5544 5543 5542 5542 5541 5539 5538 5538 5536 5533 5530 5528 5526 5524 5522 5521 5519 5518 5516 5515 5513 5512 5511 5510 5508 5506 5505
5529 5530 5531 5533 5534 5534 5534 5535 5535 5535 5534 5535 5535 5536 5535 5535 5534 5533 5531 5530 5529 5528 5527 5525 5524 5523 5520 5519 5517 5515 5513 5512 5510 5508 5507 5506 5504 5503 5502 5501 5499 5498 5496 5495
5519 5519 5519 5521 5522 5523 5523 5524 5524 5524 5524 5524 5524 5524 5523 5523 5522 5521 5519 5518 5516 5515 5513 5512 5511 5511 5509 5508 5506 5504 5502 5501 5499 5498 5496 5495 5494 5492 5491 5490 5488 5487 5486 5485